Location: Buena Vista
(37.7110°N, 119.7938°W)
Time: 22:53:21
(UTC+00:00)

Envisat - Pass Details

Date: 22 August 2024
Orbit: 762 x 764 km, 98.3° (Epoch: 08 September)

Event Time Altitude Azimuth Distance (km) Brightness Sun altitude
Rises 12:37:31 0° 351° (N) 3,232 6.4 -9.0°
Reaches altitude 10° 12:41:00 10° 326° (NW) 2,301 5.4 -8.4°
Maximum altitude 12:43:22 13° 298° (WNW) 2,064 4.9 -8.0°
Drops below altitude 10° 12:45:45 10° 269° (W) 2,295 4.9 -7.5°
Enters shadow 12:46:28 - 262° (W) 2,441 5.0 -7.4°
